Dewpoint
-0 -1 -1 -3 -1 -2 -1 -0 1 -1 -3 -1 -1 -1 -2 -3 -3 -2 -2 -2 -2 -3 -5 -5 -6 -9 -14 -13 -6 -4 3 3 2 2 3 4 4 5 7 8 8 9 9 9
-1 -2 -2 -2 -1 -1 0 1 0 -1 -2 -1 -1 -0 -1 -2 -1 -1 -2 -2 -2 -2 -3 -5 -7 -8 -8 -13 -8 -3 3 2 1 -0 1 7 8 9 9 9 9 9 9 9
1 -2 -1 1 1 1 1 1 0 -0 -1 -0 1 1 -2 -2 2 2 2 2 -2 -3 -4 -7 -8 -9 -9 -7 -8 3 2 0 -2 -4 3 9 10 10 10 9 9 9 10 10
0 -1 1 1 2 1 2 -1 0 1 3 4 1 4 1 2 3 1 2 2 3 4 -4 -4 -1 -1 -5 3 4 2 1 0 -3 1 7 9 10 9 8 9 9 10 11 11
-0 1 2 3 2 1 2 -1 1 3 5 5 4 4 2 3 3 4 2 3 5 4 2 -1 2 4 4 5 4 6 8 7 7 10 10 10 9 8 9 9 10 11 11 11
2 2 2 1 1 0 -1 1 3 4 5 4 2 4 3 5 4 4 4 5 6 3 3 3 4 5 5 6 8 8 8 7 7 9 9 9 9 10 9 11 11 11 10 11
1 3 2 2 3 3 4 5 4 2 2 3 5 5 5 4 3 4 6 6 6 6 6 5 6 7 7 7 7 8 8 7 7 8 9 8 10 10 10 11 11 11 11 11
2 1 2 2 3 5 6 5 6 4 6 6 4 5 6 4 3 2 3 5 4 4 5 6 6 5 6 6 6 7 9 9 9 9 9 10 10 10 10 9 10 10 10 9
4 3 -0 3 4 4 5 7 6 6 6 5 4 4 5 4 3 2 2 3 3 3 3 4 4 5 5 5 3 6 8 9 9 9 10 9 9 10 9 9 8 8 9 9
2 5 1 2 3 3 5 4 5 3 7 6 4 5 6 4 3 3 2 2 2 2 2 3 1 2 4 3 3 4 6 7 8 9 9 9 10 10 9 9 9 9 9 8
2 3 2 0 1 2 2 2 3 3 5 6 5 4 5 4 4 4 2 1 -0 -3 -5 -5 -6 -4 -4 -7 -5 -2 -1 2 3 3 5 8 8 9 9 9 9 9 9 9
1 1 3 1 -1 -1 0 1 1 2 2 3 3 6 3 3 3 3 -1 -4 -7 -9 -8 -8 -9 -8 -9 -10 -11 -12 -12 -9 -6 -5 -2 0 2 3 6 7 8 8 8 8
-0 1 0 -3 -5 -3 1 0 0 1 0 2 3 4 0 1 2 -1 -4 -7 -8 -9 -11 -11 -11 -10 -11 -11 -12 -13 -14 -15 -15 -16 -16 -13 -10 -8 -6 -4 -1 1 2 3
-0 0 -0 -0 -1 -0 2 0 -0 0 -0 2 2 2 1 1 0 -2 -5 -7 -6 -7 -10 -12 -13 -12 -12 -11 -11 -12 -13 -13 -13 -15 -16 -17 -18 -17 -16 -15 -15 -14 -13 -12
-1 0 -1 -1 -1 -0 1 -1 -1 -1 -1 0 -1 1 0 0 -0 -1 -3 -6 -5 -5 -7 -13 -13 -12 -13 -13 -13 -13 -14 -14 -13 -13 -15 -16 -16 -16 -17 -17 -17 -16 -15 -14
-2 0 -0 0 -1 -3 -2 -2 -2 -0 1 1 1 1 -2 -1 -1 -1 -2 -4 -4 -4 -5 -11 -13 -12 -14 -14 -15 -15 -15 -16 -16 -18 -18 -18 -18 -19 -20 -20 -19 -19 -19 -17
-1 -0 0 -2 -2 -4 -7 -5 -2 -1 -1 -0 1 -1 -2 -1 -1 -1 -2 -3 -3 -3 -6 -10 -12 -10 -11 -13 -13 -15 -15 -15 -14 -12 -13 -15 -17 -17 -17 -17 -18 -17 -18 -18
-1 -2 -1 0 -5 -13 -13 -4 -4 -2 -2 -1 -1 -2 -2 -2 -1 -1 -1 -1 -1 -3 -6 -11 -11 -11 -12 -13 -14 -14 -15 -14 -15 -16 -17 -17 -18 -17 -17 -18 -18 -17 -17 -16
-2 -2 -1 -1 -2 -8 -12 -5 -2 -3 -5 -4 -1 -1 -2 -1 -2 -2 -2 -3 -4 -5 -7 -12 -10 -10 -12 -14 -14 -16 -17 -19 -19 -21 -20 -18 -17 -18 -19 -21 -20 -18 -15 -15
-3 -3 -2 -2 -3 -10 -18 -7 -4 -7 -9 -11 -2 -2 -1 -2 -1 -3 -5 -4 -5 -6 -12 -10 -9 -11 -13 -15 -16 -18 -20 -21 -23 -21 -19 -17 -17 -19 -19 -17 -16 -14 -12 -12
-0 -1 -0 -1 -1 -4 -9 -5 -6 -11 -17 -7 -3 -2 -1 -2 -3 -8 -7 -6 -8 -13 -11 -11 -11 -13 -15 -15 -17 -18 -20 -22 -21 -21 -20 -19 -19 -16 -14 -12 -11 -10 -10 -10
-3 -1 -1 -2 -1 -3 -5 -4 -6 -10 -8 -4 -3 -2 -2 -2 -4 -6 -7 -9 -14 -14 -13 -14 -15 -16 -16 -16 -18 -22 -23 -22 -22 -22 -21 -20 -17 -15 -13 -11 -11 -10 -9 -7
-3 -5 -5 -3 -4 -9 -5 -6 -7 -7 -6 -6 -5 -4 -2 -2 -3 -5 -6 -9 -14 -16 -15 -16 -17 -16 -16 -18 -20 -21 -20 -21 -22 -21 -20 -15 -12 -11 -9 -7 -7 -7 -7 -7
-5 -5 -3 -4 -6 -6 -6 -6 -6 -6 -6 -6 -6 -5 -3 -3 -4 -5 -6 -9 -14 -16 -16 -16 -16 -19 -19 -19 -19 -18 -18 -18 -16 -15 -10 -8 -8 -7 -7 -7 -7 -7 -7 -7
-5 -5 -4 -3 -5 -6 -7 -7 -7 -7 -7 -5 -5 -5 -5 -3 -3 -5 -6 -9 -14 -17 -17 -18 -19 -20 -19 -18 -17 -16 -15 -14 -12 -10 -8 -8 -6 -7 -7 -7 -7 -7 -7 -7
-4 -4 -3 -4 -6 -7 -7 -7 -7 -6 -6 -6 -5 -4 -5 -4 -4 -5 -5 -8 -13 -18 -19 -19 -21 -20 -17 -16 -16 -16 -16 -12 -9 -8 -7 -7 -7 -7 -7 -7 -8 -8 -8 -8
Wind_Speed
4 5 2 4 4 2 1 4 9 12 12 6 14 19 23 30 21 24 30 30 36 35 30 27 24 24 28 35 32 26 23 21 23 25 26 29 31 30 30 32 34 32 34 41
3 1 6 4 4 5 4 10 12 12 4 4 13 20 22 18 16 19 23 24 29 30 30 24 22 27 27 30 33 28 24 23 26 27 27 28 28 30 33 34 37 42 41 48
3 5 3 4 6 8 8 8 9 9 6 10 11 8 3 3 7 12 21 17 20 24 25 20 21 26 25 26 28 25 23 26 28 27 25 27 28 32 34 41 41 44 41 46
4 2 1 4 9 7 7 7 14 14 8 5 3 7 1 6 6 6 21 23 22 19 20 19 18 19 20 19 20 20 24 29 24 25 26 27 28 33 38 40 40 41 35 46
6 4 4 6 6 9 9 5 5 10 8 6 3 4 5 8 8 17 17 23 21 12 9 11 10 11 13 14 16 19 20 22 22 19 23 25 28 31 34 41 38 32 31 37
10 0 3 5 3 12 9 10 11 5 2 2 2 4 3 9 12 15 12 12 19 4 3 4 5 7 9 12 13 15 20 24 21 21 21 24 23 24 35 25 29 25 30 35
4 4 3 5 4 4 5 4 3 4 3 4 4 3 3 13 14 15 10 13 15 19 17 14 12 12 8 7 9 17 21 19 18 14 16 15 17 15 4 18 19 18 14 35
3 6 4 5 5 2 2 1 2 4 2 4 2 5 3 9 17 21 25 24 24 27 24 23 19 24 22 20 16 17 5 6 10 9 8 12 10 7 3 2 5 2 6 11
3 5 4 5 4 3 1 2 1 3 3 2 3 2 2 13 12 18 23 24 24 31 27 28 26 27 29 22 25 31 28 27 19 12 13 10 4 5 3 0 1 3 4 5
3 6 4 3 3 4 3 3 2 2 4 4 4 3 7 13 14 11 13 20 22 22 25 25 25 24 24 23 29 27 28 28 19 16 10 10 8 7 3 2 3 1 5 8
1 2 7 3 1 1 3 3 3 1 2 1 3 4 7 9 8 11 13 12 14 17 17 16 17 17 16 16 20 22 23 20 19 17 15 13 11 9 4 2 1 5 7 12
4 2 4 4 5 2 2 2 1 3 3 1 2 3 4 3 6 10 7 7 9 13 14 15 16 17 19 20 20 20 20 18 16 14 12 11 9 8 5 4 5 8 11 15
3 1 4 7 6 4 3 3 1 2 0 2 3 3 0 3 3 3 3 5 9 13 15 16 18 19 20 20 21 20 18 17 14 11 9 9 9 9 9 9 9 11 14 16
4 2 5 5 6 2 6 6 2 2 1 2 4 3 4 3 3 4 2 3 6 10 13 15 17 17 18 19 20 20 19 18 17 15 13 12 11 12 14 15 16 17 18 20
1 3 3 6 8 4 5 7 4 2 4 3 3 6 6 7 7 11 7 4 3 6 12 15 15 15 16 17 18 18 18 18 17 17 18 19 19 19 19 18 18 18 18 19
3 3 3 5 1 3 6 8 7 5 3 4 2 5 7 9 10 10 11 7 5 6 9 12 14 14 15 16 17 16 16 16 17 19 20 21 21 23 24 24 24 24 25 26
3 3 5 5 5 7 5 6 7 4 4 5 5 8 5 5 9 14 12 10 8 5 6 9 10 11 14 15 16 17 18 20 22 24 26 28 29 30 31 32 34 35 36 36
1 1 1 4 8 4 4 1 2 5 7 9 4 5 7 9 14 12 11 10 9 7 6 8 8 10 11 13 16 19 21 21 23 25 28 30 32 34 35 37 38 39 41 41
5 3 1 1 2 8 1 4 5 6 7 9 13 7 5 7 5 12 14 12 9 7 6 7 6 7 11 16 18 20 22 23 25 27 28 29 31 32 34 36 38 39 41 42
4 3 3 0 2 5 5 3 5 3 5 3 13 9 10 11 2 5 9 13 8 7 7 5 5 9 13 16 18 20 21 23 25 26 27 28 30 31 31 31 32 33 35 37
2 1 4 4 4 8 6 4 6 2 5 3 8 19 23 6 10 4 10 10 8 6 4 3 6 9 13 15 17 18 20 23 24 25 25 25 26 28 28 29 30 32 34 35
7 6 4 2 3 8 10 6 6 4 3 5 6 17 25 22 9 10 10 9 7 4 4 6 8 10 13 16 18 21 22 23 24 24 24 24 24 25 25 27 28 30 32 31
3 6 4 9 7 4 21 10 16 12 8 5 6 14 17 20 20 15 11 8 5 5 6 8 10 11 13 18 20 21 22 24 25 24 24 23 24 24 25 28 28 27 27 28
5 7 4 1 5 13 28 32 32 28 24 16 12 11 17 20 18 16 13 11 9 8 8 9 11 14 16 18 19 21 23 24 24 25 23 24 25 24 25 25 24 26 27 30
6 8 5 7 13 24 31 27 29 28 26 30 26 19 19 20 19 17 14 11 9 9 10 11 14 15 16 19 19 21 22 24 24 24 25 24 23 24 26 28 30 27 29 26
14 8 6 8 10 12 17 19 11 10 14 19 27 29 23 22 20 17 14 11 10 11 13 15 16 17 17 18 18 20 22 22 23 23 23 22 22 24 26 29 34 29 30 30
Wind_Direction
26 48 283 223 207 204 260 241 269 263 268 278 267 266 278 287 284 273 267 258 264 268 266 263 246 249 244 245 248 255 251 252 261 265 267 262 258 262 262 263 256 262 258 250
7 248 236 210 208 221 221 274 274 287 268 201 272 278 283 282 276 284 294 266 265 269 272 260 249 240 242 236 239 246 251 260 263 268 266 261 261 266 266 272 266 257 266 249
203 235 155 181 271 267 242 236 254 239 306 256 276 277 281 302 311 358 353 325 290 278 271 257 249 241 243 226 229 237 246 258 263 263 261 261 269 272 271 272 273 269 268 246
243 229 200 237 259 216 283 223 244 264 289 309 49 296 318 335 297 335 327 325 309 285 258 252 253 232 216 216 225 243 258 263 256 248 246 253 262 268 274 277 278 279 256 232
255 199 234 271 256 168 241 239 247 273 261 302 166 259 282 348 325 326 320 316 322 296 253 228 197 201 208 230 234 239 247 251 242 233 241 249 261 283 290 283 269 245 239 236
256 257 230 229 258 210 252 291 281 270 280 292 237 223 305 352 320 313 307 351 351 29 83 114 169 181 209 231 235 242 247 240 238 238 244 259 274 281 292 259 231 238 238 239
314 206 223 198 264 212 223 298 332 352 3 238 213 187 280 343 338 337 4 1 29 54 73 83 61 63 56 3 308 262 249 245 229 233 242 253 261 263 271 188 204 192 208 210
-0 332 192 174 209 246 200 205 251 271 310 289 15 320 341 8 351 357 15 30 43 51 62 69 63 60 52 35 54 67 186 162 173 216 231 237 219 236 184 7 22 297 247 252
342 282 275 195 171 182 181 262 179 276 241 347 292 303 240 351 6 10 20 36 41 46 51 58 52 47 45 30 47 60 92 113 134 120 155 190 166 148 113 70 355 231 266 263
290 297 264 298 163 234 219 285 335 334 339 322 328 340 342 350 346 358 20 27 42 56 55 54 50 52 53 39 43 46 52 70 68 65 79 143 146 135 112 183 203 208 298 283
237 166 289 335 7 317 345 358 289 313 165 331 319 319 347 344 352 13 34 46 49 63 64 60 55 58 63 59 59 57 59 59 62 61 52 65 84 105 112 123 174 247 265 270
193 172 282 273 322 316 212 356 50 106 347 82 144 296 212 266 313 349 22 57 60 53 53 52 48 48 46 48 48 51 51 54 52 44 39 41 30 27 18 350 317 284 275 274
178 229 328 341 345 353 49 314 269 252 84 233 141 252 23 266 316 44 123 79 44 38 37 36 39 40 40 39 42 41 42 44 40 36 25 14 6 358 351 335 319 305 297 291
170 190 178 193 221 197 303 316 26 115 72 182 226 243 221 200 232 235 221 22 20 25 27 27 30 29 32 33 33 34 32 29 26 23 18 12 5 352 342 335 327 318 310 304
60 263 193 254 244 222 239 259 307 184 222 193 311 212 238 213 212 222 223 234 293 3 15 16 17 20 21 23 24 26 23 19 19 18 13 11 4 356 349 342 335 327 320 313
2 287 342 283 69 285 266 239 239 238 220 241 180 264 215 215 206 218 224 227 269 335 352 4 7 6 11 14 16 16 16 13 10 5 4 0 355 351 346 342 338 333 329 324
21 359 7 276 335 304 298 239 190 198 205 168 193 228 170 187 206 221 226 232 253 280 325 345 354 1 6 8 10 11 12 11 9 6 3 358 353 350 347 344 341 337 334 330
250 41 143 278 340 4 235 220 193 228 245 220 249 225 207 218 213 225 231 240 245 260 302 329 338 353 360 7 12 13 11 6 0 356 353 350 349 346 344 341 338 335 333 331
191 130 294 296 241 281 329 184 179 179 281 210 221 212 216 188 200 253 236 238 236 246 287 302 318 350 4 8 9 7 359 353 350 349 347 346 343 340 338 334 332 330 328 326
83 87 134 303 307 247 229 192 177 151 292 257 204 185 168 152 175 254 220 216 222 253 267 284 344 1 1 358 355 352 346 345 343 344 345 341 337 335 331 329 328 326 323 322
217 199 198 204 253 285 236 189 143 130 234 293 221 199 176 187 200 185 182 198 218 242 261 321 352 353 347 342 342 341 343 340 341 336 333 331 330 331 332 331 329 327 327 326
181 161 207 133 230 283 159 108 173 227 307 311 213 201 200 211 210 211 202 208 216 233 284 318 324 331 329 329 329 330 333 332 330 328 326 325 327 329 326 324 327 327 331 327
263 200 190 191 216 241 189 215 222 250 268 300 286 220 218 219 224 225 226 226 245 267 281 296 312 321 326 326 329 330 327 326 326 325 324 324 325 329 330 329 328 321 320 318
247 193 225 5 262 241 247 253 259 258 261 263 270 250 235 232 228 226 226 229 237 253 274 294 311 317 322 323 324 323 323 323 324 324 323 322 326 331 326 323 323 323 323 321
216 154 210 264 283 279 277 267 270 267 261 257 252 254 246 235 232 230 231 234 244 261 283 300 307 313 318 319 321 321 319 318 319 320 322 328 326 327 327 331 334 328 329 322
198 214 196 239 236 252 280 298 303 305 301 306 259 242 239 232 231 233 237 246 261 278 292 300 305 307 308 310 314 315 314 314 314 318 326 323 323 327 329 330 334 336 337 340
Height
1522 1528 1533 1530 1528 1528 1528 1529 1527 1511 1507 1508 1499 1489 1476 1470 1473 1466 1459 1457 1455 1454 1456 1458 1461 1463 1465 1467 1471 1474 1476 1479 1481 1481 1481 1481 1482 1483 1483 1484 1486 1487 1490 1491
1526 1534 1524 1524 1525 1526 1527 1522 1517 1506 1499 1503 1493 1482 1472 1470 1465 1462 1456 1451 1450 1449 1449 1450 1453 1456 1457 1461 1465 1469 1470 1473 1475 1475 1474 1474 1475 1475 1475 1475 1477 1479 1480 1481
1527 1523 1520 1521 1520 1521 1521 1520 1513 1512 1499 1497 1496 1484 1469 1465 1464 1459 1454 1451 1446 1444 1444 1444 1447 1449 1451 1453 1459 1463 1465 1467 1467 1468 1468 1468 1467 1467 1467 1467 1465 1465 1467 1469
1524 1517 1517 1519 1517 1517 1515 1504 1504 1504 1505 1493 1489 1480 1466 1467 1463 1459 1455 1450 1445 1439 1438 1439 1441 1443 1446 1451 1454 1456 1457 1457 1459 1462 1462 1462 1461 1460 1459 1458 1456 1455 1456 1459
1518 1516 1514 1514 1509 1510 1504 1498 1498 1497 1496 1493 1485 1490 1469 1467 1463 1459 1453 1447 1440 1435 1434 1435 1438 1442 1445 1448 1448 1450 1450 1450 1453 1455 1457 1457 1456 1454 1450 1448 1445 1447 1451 1456
1514 1513 1513 1509 1507 1504 1496 1497 1494 1492 1493 1500 1486 1487 1479 1472 1469 1459 1450 1445 1439 1434 1435 1437 1439 1442 1444 1445 1444 1443 1444 1444 1446 1449 1452 1454 1453 1451 1443 1436 1440 1444 1448 1452
1510 1509 1506 1507 1506 1499 1499 1498 1503 1505 1507 1496 1480 1485 1477 1473 1469 1461 1452 1448 1444 1440 1438 1439 1441 1442 1443 1441 1438 1436 1435 1436 1441 1445 1448 1450 1451 1449 1444 1438 1441 1442 1448 1445
1528 1513 1504 1501 1500 1497 1498 1499 1495 1507 1485 1482 1474 1479 1472 1476 1471 1465 1458 1451 1448 1444 1444 1443 1444 1442 1441 1440 1434 1430 1430 1435 1441 1444 1445 1447 1448 1447 1444 1446 1445 1443 1445 1447
1525 1514 1497 1497 1495 1497 1494 1492 1493 1490 1485 1486 1484 1476 1475 1473 1472 1468 1463 1458 1455 1451 1450 1447 1445 1443 1441 1441 1437 1432 1431 1432 1437 1440 1442 1445 1447 1447 1447 1447 1448 1448 1449 1452
1519 1514 1497 1492 1493 1494 1494 1493 1494 1500 1483 1481 1484 1484 1476 1477 1476 1473 1471 1467 1463 1461 1458 1454 1453 1452 1450 1447 1441 1438 1433 1433 1438 1440 1442 1443 1445 1445 1447 1447 1448 1448 1449 1450
1516 1519 1504 1495 1491 1494 1497 1497 1494 1493 1491 1493 1495 1494 1483 1483 1479 1476 1476 1475 1470 1466 1467 1464 1462 1459 1457 1456 1452 1447 1445 1441 1443 1445 1445 1445 1445 1445 1446 1446 1446 1447 1447 1448
1514 1519 1520 1500 1495 1495 1493 1492 1497 1510 1489 1500 1496 1488 1481 1481 1479 1479 1478 1478 1476 1474 1470 1467 1464 1462 1459 1457 1455 1452 1449 1449 1449 1450 1450 1449 1448 1447 1447 1446 1447 1448 1447 1446
1512 1521 1530 1510 1501 1492 1495 1495 1495 1497 1503 1502 1501 1488 1481 1481 1480 1481 1481 1479 1476 1474 1471 1468 1465 1462 1459 1458 1456 1454 1453 1452 1452 1451 1451 1450 1448 1448 1447 1447 1446 1445 1444 1444
1510 1516 1513 1524 1504 1502 1498 1493 1494 1498 1513 1494 1495 1483 1482 1480 1481 1482 1481 1479 1478 1476 1473 1471 1466 1464 1462 1460 1458 1456 1455 1454 1453 1452 1451 1450 1449 1448 1447 1446 1445 1444 1443 1441
1511 1513 1514 1507 1502 1501 1497 1493 1490 1500 1494 1495 1487 1487 1480 1478 1479 1479 1479 1478 1477 1476 1474 1471 1469 1467 1464 1462 1459 1458 1456 1455 1455 1453 1451 1448 1447 1446 1445 1444 1443 1441 1440 1438
1511 1513 1509 1505 1495 1498 1496 1491 1490 1487 1486 1486 1485 1482 1473 1473 1476 1477 1477 1477 1476 1474 1473 1471 1469 1468 1465 1462 1460 1459 1458 1456 1454 1451 1449 1448 1446 1444 1442 1441 1439 1437 1434 1433
1514 1515 1516 1508 1501 1498 1493 1481 1482 1478 1478 1479 1482 1472 1471 1472 1472 1473 1474 1475 1475 1474 1473 1471 1469 1467 1465 1463 1461 1459 1456 1453 1451 1449 1446 1443 1440 1439 1437 1434 1431 1428 1425 1423
1512 1514 1517 1516 1504 1501 1474 1473 1474 1475 1473 1472 1469 1467 1467 1467 1468 1469 1470 1470 1471 1471 1470 1469 1467 1466 1464 1462 1460 1457 1454 1452 1450 1447 1444 1441 1436 1434 1431 1428 1426 1423 1418 1414
1508 1513 1513 1515 1518 1487 1465 1472 1473 1474 1465 1459 1460 1462 1464 1467 1468 1466 1466 1467 1468 1469 1468 1467 1466 1464 1461 1459 1457 1455 1453 1451 1448 1444 1442 1439 1437 1433 1430 1427 1424 1420 1415 1411
1509 1509 1513 1517 1506 1484 1464 1464 1465 1467 1472 1453 1453 1456 1460 1465 1472 1464 1461 1464 1466 1466 1466 1464 1462 1461 1459 1457 1456 1454 1451 1448 1445 1442 1440 1438 1434 1431 1428 1426 1423 1418 1413 1408
1509 1511 1512 1512 1514 1484 1463 1462 1463 1467 1462 1449 1448 1451 1455 1459 1457 1458 1459 1461 1462 1462 1461 1460 1459 1458 1457 1455 1453 1452 1449 1446 1443 1442 1440 1437 1433 1430 1426 1423 1419 1415 1410 1405
1499 1509 1511 1513 1509 1493 1457 1464 1466 1453 1447 1447 1446 1447 1450 1452 1454 1455 1456 1457 1457 1457 1457 1456 1457 1456 1455 1453 1452 1448 1445 1444 1442 1439 1437 1434 1431 1428 1425 1421 1416 1411 1405 1402
1500 1485 1486 1485 1470 1451 1451 1446 1446 1446 1447 1448 1447 1447 1447 1449 1450 1451 1452 1453 1454 1454 1455 1455 1454 1454 1452 1449 1447 1446 1444 1442 1439 1437 1434 1431 1428 1425 1420 1415 1411 1407 1403 1397
1481 1476 1478 1471 1446 1445 1446 1445 1444 1444 1442 1443 1444 1445 1446 1445 1447 1448 1449 1450 1451 1451 1451 1451 1451 1449 1447 1446 1445 1444 1441 1439 1436 1433 1430 1427 1422 1419 1416 1413 1408 1403 1398 1393
1474 1473 1469 1463 1446 1442 1439 1438 1437 1437 1437 1437 1438 1439 1440 1442 1443 1445 1446 1447 1447 1447 1447 1446 1445 1444 1443 1443 1442 1440 1438 1435 1433 1429 1425 1422 1418 1415 1412 1408 1403 1399 1395 1390
1459 1456 1459 1446 1438 1439 1437 1437 1435 1434 1433 1433 1432 1431 1432 1434 1437 1440 1442 1442 1443 1443 1443 1442 1442 1442 1442 1441 1440 1437 1434 1431 1429 1425 1422 1419 1415 1412 1407 1402 1397 1395 1389 1382